TimeEDT,TemperatureF,Dew PointF,Humidity,Sea Level PressureIn,VisibilityMPH,Wind Direction,Wind SpeedMPH,Gust SpeedMPH,PrecipitationIn,Events,Conditions,WindDirDegrees,DateUTC
12:15 AM,67.6,62.1,82,29.99,10.0,SSE,3.5,-,N/A,,Overcast,160,2013-04-18 04:15:00
12:35 AM,67.6,62.1,82,29.98,10.0,SSE,6.9,-,N/A,,Mostly Cloudy,150,2013-04-18 04:35:00
12:55 AM,67.6,62.6,84,29.98,10.0,South,8.1,-,N/A,,Scattered Clouds,180,2013-04-18 04:55:00
1:15 AM,67.6,62.6,84,29.96,10.0,SSE,5.8,-,N/A,,Clear,160,2013-04-18 05:15:00
1:35 AM,67.6,63.1,85,29.95,10.0,SSE,4.6,-,N/A,,Clear,160,2013-04-18 05:35:00
1:55 AM,67.6,63.3,86,29.95,10.0,South,6.9,-,N/A,,Clear,170,2013-04-18 05:55:00
2:15 AM,67.6,62.8,84,29.94,10.0,South,8.1,-,N/A,,Clear,170,2013-04-18 06:15:00
2:35 AM,67.6,63.5,87,29.92,10.0,South,8.1,-,N/A,,Clear,170,2013-04-18 06:35:00
2:55 AM,67.6,63.5,87,29.92,10.0,South,6.9,-,N/A,,Clear,190,2013-04-18 06:55:00
3:15 AM,65.3,61.7,88,29.91,10.0,South,3.5,-,N/A,,Clear,180,2013-04-18 07:15:00
3:35 AM,65.3,61.7,88,29.90,10.0,South,5.8,-,N/A,,Clear,190,2013-04-18 07:35:00
3:55 AM,65.3,61.7,88,29.89,-9999.0,South,3.5,-,N/A,,Unknown,180,2013-04-18 07:55:00
4:15 AM,65.3,61.7,88,29.89,10.0,South,6.9,-,N/A,,Clear,180,2013-04-18 08:15:00
4:35 AM,65.3,61.7,88,29.89,10.0,South,6.9,-,N/A,,Clear,190,2013-04-18 08:35:00
4:55 AM,65.3,61.7,88,29.88,10.0,South,4.6,-,N/A,,Clear,190,2013-04-18 08:55:00
5:15 AM,65.3,61.7,88,29.89,10.0,South,6.9,-,N/A,,Clear,190,2013-04-18 09:15:00
5:35 AM,65.3,61.7,88,29.88,10.0,South,8.1,-,N/A,,Clear,190,2013-04-18 09:35:00
5:55 AM,67.6,63.7,87,29.88,10.0,SSW,11.5,-,N/A,,Clear,200,2013-04-18 09:55:00
6:15 AM,67.6,63.7,87,29.88,10.0,SSW,12.7,19.6,N/A,,Clear,200,2013-04-18 10:15:00
6:35 AM,67.6,63.5,87,29.88,10.0,SSW,10.4,-,N/A,,Clear,210,2013-04-18 10:35:00
6:55 AM,67.3,63.7,88,29.88,10.0,SSW,9.2,-,N/A,,Clear,210,2013-04-18 10:55:00
7:15 AM,65.7,62.2,89,29.89,10.0,SSW,8.1,-,N/A,,Clear,200,2013-04-18 11:15:00
7:35 AM,67.5,64.2,89,29.89,10.0,South,9.2,-,N/A,,Clear,190,2013-04-18 11:35:00
7:55 AM,67.6,63.5,87,29.90,10.0,SSW,12.7,-,N/A,,Clear,200,2013-04-18 11:55:00
8:15 AM,67.6,63.5,87,29.90,10.0,South,11.5,16.1,N/A,,Clear,190,2013-04-18 12:15:00
8:35 AM,67.6,62.6,84,29.90,10.0,South,10.4,-,N/A,,Clear,190,2013-04-18 12:35:00
8:55 AM,67.6,61.9,82,29.90,10.0,SSW,17.3,27.6,N/A,,Clear,200,2013-04-18 12:55:00
9:15 AM,69.4,63.1,80,29.89,10.0,SSW,19.6,25.3,N/A,,Clear,200,2013-04-18 13:15:00
9:35 AM,72.7,66.2,80,29.88,10.0,SSW,15.0,25.3,N/A,,Clear,200,2013-04-18 13:35:00
9:55 AM,72.7,65.7,79,29.88,10.0,SSW,15.0,25.3,N/A,,Clear,200,2013-04-18 13:55:00
10:15 AM,72.7,65.1,77,29.87,10.0,SSW,23.0,28.8,N/A,,Clear,200,2013-04-18 14:15:00
10:35 AM,75.2,66.9,75,29.87,10.0,South,20.7,29.9,N/A,,Scattered Clouds,190,2013-04-18 14:35:00
10:55 AM,75.2,65.7,72,29.86,10.0,SSW,26.5,33.4,N/A,,Scattered Clouds,200,2013-04-18 14:55:00
11:15 AM,76.1,65.8,70,29.85,10.0,SSW,23.0,35.7,N/A,,Clear,210,2013-04-18 15:15:00
11:35 AM,77.9,66.2,67,29.84,10.0,SSW,26.5,36.8,N/A,,Scattered Clouds,210,2013-04-18 15:35:00
11:55 AM,77.9,66.0,67,29.83,10.0,South,26.5,32.2,N/A,,Scattered Clouds,190,2013-04-18 15:55:00
12:15 PM,77.9,65.1,65,29.83,10.0,SSW,23.0,33.4,N/A,,Scattered Clouds,200,2013-04-18 16:15:00
12:35 PM,77.9,64.4,63,29.83,10.0,SSW,28.8,38.0,N/A,,Scattered Clouds,210,2013-04-18 16:35:00
12:55 PM,79.0,64.6,61,29.82,10.0,SSW,27.6,34.5,N/A,,Scattered Clouds,210,2013-04-18 16:55:00
1:15 PM,78.8,64.0,60,29.82,10.0,SSW,21.9,32.2,N/A,,Scattered Clouds,210,2013-04-18 17:15:00
1:35 PM,79.3,64.0,59,29.80,10.0,South,23.0,29.9,N/A,,Scattered Clouds,190,2013-04-18 17:35:00
1:55 PM,80.1,64.2,58,29.80,10.0,SSW,25.3,33.4,N/A,,Clear,200,2013-04-18 17:55:00
2:15 PM,80.2,62.8,55,29.79,10.0,SSW,26.5,32.2,N/A,,Clear,200,2013-04-18 18:15:00
2:35 PM,81.0,63.5,55,29.78,10.0,SSW,23.0,31.1,N/A,,Clear,200,2013-04-18 18:35:00
2:55 PM,80.2,63.3,56,29.78,10.0,South,21.9,33.4,N/A,,Scattered Clouds,190,2013-04-18 18:55:00
3:15 PM,80.2,62.4,54,29.78,10.0,SSW,26.5,35.7,N/A,,Scattered Clouds,200,2013-04-18 19:15:00
3:35 PM,80.2,62.1,54,29.77,10.0,SSW,21.9,38.0,N/A,,Scattered Clouds,200,2013-04-18 19:35:00
3:55 PM,80.6,62.1,53,29.76,10.0,SSW,23.0,35.7,N/A,,Clear,200,2013-04-18 19:55:00
4:35 PM,80.6,60.4,50,29.75,10.0,SSW,21.9,31.1,N/A,,Clear,200,2013-04-18 20:35:00
4:55 PM,79.0,59.7,52,29.74,10.0,SSW,24.2,42.6,N/A,,Clear,200,2013-04-18 20:55:00
5:15 PM,79.0,59.7,52,29.73,10.0,SSW,23.0,29.9,N/A,,Clear,200,2013-04-18 21:15:00
5:35 PM,79.0,59.9,52,29.73,10.0,SSW,20.7,32.2,N/A,,Clear,200,2013-04-18 21:35:00
5:55 PM,79.0,58.1,49,29.72,10.0,SSW,23.0,34.5,N/A,,Clear,200,2013-04-18 21:55:00
6:15 PM,78.6,57.2,48,29.72,10.0,South,21.9,34.5,N/A,,Clear,190,2013-04-18 22:15:00
6:35 PM,78.4,57.7,49,29.71,10.0,South,15.0,27.6,N/A,,Scattered Clouds,190,2013-04-18 22:35:00
6:55 PM,77.9,55.4,46,29.70,10.0,South,17.3,28.8,N/A,,Scattered Clouds,190,2013-04-18 22:55:00
7:15 PM,77.9,54.7,45,29.70,10.0,South,16.1,29.9,N/A,,Scattered Clouds,190,2013-04-18 23:15:00
7:35 PM,77.9,54.5,44,29.70,10.0,South,13.8,21.9,N/A,,Scattered Clouds,190,2013-04-18 23:35:00
7:55 PM,77.9,55.4,46,29.69,10.0,South,13.8,18.4,N/A,,Mostly Cloudy,180,2013-04-18 23:55:00
8:15 PM,77.9,55.6,46,29.69,10.0,South,12.7,21.9,N/A,,Scattered Clouds,190,2013-04-19 00:15:00
8:35 PM,77.9,55.4,46,29.69,10.0,South,15.0,21.9,N/A,,Scattered Clouds,190,2013-04-19 00:35:00
8:55 PM,77.9,55.8,46,29.69,10.0,South,13.8,21.9,N/A,,Scattered Clouds,190,2013-04-19 00:55:00
9:15 PM,77.9,55.8,46,29.69,10.0,SSW,16.1,25.3,N/A,,Mostly Cloudy,200,2013-04-19 01:15:00
9:35 PM,77.9,55.6,46,29.68,10.0,South,19.6,24.2,N/A,,Overcast,190,2013-04-19 01:35:00
11:35 PM,75.2,55.6,50,29.64,10.0,South,16.1,20.7,N/A,,Overcast,190,2013-04-19 03:35:00
11:55 PM,75.2,55.9,51,29.62,10.0,South,15.0,24.2,N/A,,Mostly Cloudy,190,2013-04-19 03:55:00